Powrót do katalogu

SL-12 R/B(2)

AktywnyGEO
NORAD 11676·ROCKET BODY·🇷🇺 Russia

Wystrzelony Oct 8, 1975 z Baikonur Cosmodrome

Loading…

TLE

ŚwieżeSource: Space-Track

Epoka: Sep 14, 2026, 21:16 UTC

1 11676U 75097F   26257.88620726 -.00000350  00000-0  00000-0 0  9999
2 11676   2.1340 258.8501 0021809 233.4682 311.9255  1.00122784120037

Śledź SL-12 R/B(2) w czasie rzeczywistym z AllMySat

Download on the App Store